カタログに戻る

SL-8 R/B

運用中PO
NORAD 14085·ROCKET BODY·🇷🇺 Russia

打ち上げ May 24, 1983 から Plesetsk Cosmodrome

Loading…

次のパス (今後24時間)

TLE

最新Source: Space-Track

元期: Sep 14, 2026, 13:17 UTC

1 14085U 83048B   26257.55379720  .00000100  00000-0  85732-4 0  9991
2 14085  82.9398 103.1846 0034039  25.6189 334.6645 13.76611210174845

AllMySatでSL-8 R/Bをリアルタイム追跡

Download on the App Store